EHI
2 2 2 2 2 3 5 4 3 1 0 1 0 2 4 5 4 3 2 1 0 0 0 0 0 0 0 0 0 0 0 0 0 0 0 0 0 0
4 3 3 2 1 2 2 2 2 1 1 1 1 2 5 5 4 3 1 0 0 0 0 0 0 0 0 0 0 0 0 0 0 0 0 0 0 0
5 4 4 3 1 1 1 1 2 2 1 1 1 2 5 6 4 3 1 0 0 0 0 0 0 0 0 0 0 0 0 0 0 0 0 0 0 0
4 4 4 3 3 2 2 2 3 2 1 1 0 2 5 6 5 3 1 0 0 0 0 0 0 0 0 0 0 0 0 0 0 0 0 0 0 0
3 3 3 3 3 3 3 3 3 3 2 1 1 2 5 6 6 3 1 0 0 0 0 0 0 0 0 0 0 0 0 0 0 0 0 0 0 0
2 3 3 3 2 2 3 3 3 3 4 3 2 3 5 6 6 4 1 0 0 0 0 0 0 0 0 0 0 0 0 0 0 0 0 0 0 0
1 2 2 2 1 1 1 2 2 3 4 3 2 3 4 4 5 5 2 1 0 0 0 0 0 0 0 0 0 0 0 0 0 0 0 0 0 0
2 2 2 2 1 1 0 1 1 1 1 1 1 2 3 3 4 4 2 1 0 0 0 0 0 0 0 0 0 0 0 0 0 0 0 0 0 0
3 3 2 3 3 2 1 1 1 1 0 0 0 2 3 3 3 3 2 1 0 0 0 0 0 0 0 0 0 0 0 0 0 0 0 0 0 0
5 4 3 3 3 3 3 2 3 2 1 0 0 1 2 3 3 3 2 1 0 0 0 0 0 0 0 0 0 0 0 0 0 0 0 0 0 0
5 5 4 4 3 3 3 3 4 4 2 1 0 1 1 2 2 2 1 0 0 0 0 0 0 0 0 0 0 0 0 0 0 0 0 0 0 0
6 6 5 3 2 2 2 3 4 4 4 3 2 1 1 1 1 1 0 0 0 0 0 0 0 0 0 0 0 0 0 0 0 0 0 0 0 0
7 8 6 2 1 0 1 1 3 4 5 5 5 3 3 2 1 0 0 0 0 0 0 0 0 0 0 0 0 0 0 0 0 0 0 0 0 0
7 8 6 2 0 0 0 1 2 2 4 5 6 5 4 3 1 1 0 0 0 0 0 0 0 0 0 0 0 0 0 0 0 0 0 0 0 0
6 6 4 1 0 0 0 0 1 2 3 4 5 5 4 4 2 1 1 1 0 0 0 0 0 0 0 0 0 0 0 0 0 0 0 0 0 0
6 5 3 2 2 3 3 2 2 3 3 3 3 4 4 4 3 1 0 0 0 0 0 1 2 2 2 1 0 0 0 0 0 0 0 0 0 0
5 5 6 6 7 7 7 5 4 4 3 3 3 3 3 3 2 1 0 0 0 0 1 2 3 4 4 3 1 0 0 0 0 0 1 1 1 1
4 7 9 9 9 9 8 7 6 5 4 3 3 3 2 1 2 1 0 0 0 0 0 1 2 2 3 3 1 0 0 0 0 0 1 2 2 2
5 7 9 9 8 8 7 7 6 6 5 4 3 3 2 1 1 1 0 0 0 0 0 0 0 0 1 1 0 0 0 1 0 0 1 2 2 2
6 6 7 7 7 7 7 7 6 6 5 4 3 3 2 1 0 0 0 0 0 0 0 0 0 0 0 0 0 0 0 0 0 0 1 1 1 2
4 4 4 5 6 8 8 7 6 6 4 3 3 3 2 1 0 0 0 0 0 0 0 0 0 0 0 0 0 0 0 0 0 0 0 0 1 2
3 3 4 5 6 6 6 5 5 5 4 3 3 3 3 1 0 0 0 0 0 0 0 0 0 0 0 0 0 0 0 0 0 0 0 0 1 1
3 3 4 4 4 4 4 4 4 4 4 3 3 3 3 2 1 0 0 0 0 0 0 0 0 0 0 0 0 0 0 1 1 1 0 0 0 0
Wind_Speed
2 2 3 2 3 2 3 4 4 4 3 1 1 1 2 2 1 2 1 2 1 2 2 3 3 4 4 4 4 4 4 4 5 5 6 6 7 7
2 2 3 3 2 2 3 3 3 4 4 3 2 2 2 3 0 3 2 2 3 3 2 3 3 4 4 4 4 4 3 4 4 5 6 6 6 6
3 3 3 3 3 3 3 3 3 4 4 4 3 2 2 4 2 3 3 3 1 4 2 2 2 3 3 3 3 3 4 4 4 5 5 6 6 6
4 4 4 3 4 4 3 4 3 3 5 5 4 3 3 3 3 4 4 3 2 3 4 2 2 2 2 3 3 3 4 4 4 4 5 5 5 5
4 4 4 4 5 4 4 4 4 4 4 4 4 3 3 3 3 4 4 3 4 2 6 5 3 2 2 3 3 4 4 4 4 4 5 5 5 5
5 5 5 5 5 5 5 5 4 5 4 5 4 3 3 3 3 3 3 3 4 3 1 2 4 5 4 3 3 3 3 4 4 4 4 4 5 5
5 5 5 4 4 5 5 5 5 5 5 4 4 4 3 3 3 4 4 4 3 3 3 2 2 2 2 4 4 3 3 3 3 3 3 4 4 4
5 5 5 5 5 7 7 7 7 7 6 6 5 4 4 4 4 4 5 5 4 2 4 3 2 2 2 2 2 3 3 3 3 3 3 3 3 3
4 4 5 3 3 5 5 7 8 9 8 8 7 6 5 4 5 5 5 5 5 4 4 4 2 2 2 1 4 3 3 3 3 3 3 3 3 3
5 5 5 5 3 4 5 5 6 5 6 7 6 7 6 4 5 6 6 5 5 4 4 5 3 2 2 1 4 4 3 3 3 3 4 3 3 3
5 5 5 5 1 2 5 5 5 4 3 3 4 4 4 4 5 5 5 5 5 3 2 4 3 3 3 2 3 6 5 5 5 5 4 4 5 5
5 4 3 3 1 3 5 5 5 4 4 3 3 4 5 5 5 5 5 5 5 4 2 3 4 4 3 2 1 3 4 6 7 6 6 6 5 4
4 4 2 3 3 4 6 5 4 4 5 5 4 4 4 3 4 4 4 5 5 5 2 3 4 4 4 3 2 2 3 2 3 4 6 6 6 5
4 3 1 3 4 5 5 4 4 5 5 4 4 4 3 3 2 2 3 4 4 5 5 5 4 4 4 4 4 3 3 3 3 3 2 4 6 7
4 2 2 3 5 5 6 6 6 5 5 5 4 4 3 2 2 2 3 4 5 5 5 5 6 4 5 5 4 4 3 3 3 3 3 3 3 3
4 3 5 7 6 4 4 5 5 4 5 5 4 3 3 3 3 3 3 3 4 4 4 5 5 6 6 5 5 5 4 4 3 3 3 3 4 4
3 4 4 3 4 3 3 3 4 4 5 4 4 3 3 3 3 3 3 4 5 5 4 3 5 6 6 6 5 5 5 4 3 3 4 4 3 3
5 5 4 4 4 4 4 4 4 4 4 4 4 4 4 4 4 4 4 4 5 5 5 4 4 4 5 4 3 5 4 4 3 3 4 4 4 3
6 5 4 4 4 4 4 4 4 4 3 4 4 4 4 4 4 4 4 4 5 5 5 4 4 4 5 4 3 3 3 3 4 3 3 4 4 3
5 5 4 4 4 4 4 4 4 4 4 4 4 4 4 4 4 5 4 5 5 6 5 5 5 4 5 5 4 2 3 3 3 3 3 3 3 2
4 4 4 4 3 3 3 3 4 4 4 4 4 4 4 4 4 5 5 4 6 6 6 5 3 3 4 4 4 3 1 3 2 3 3 3 3 3
4 4 3 3 3 3 3 3 4 4 4 4 4 4 4 4 5 6 5 5 5 6 6 4 3 3 4 5 5 3 2 1 2 3 2 3 3 3
3 3 3 3 3 3 3 4 4 3 3 3 3 4 4 5 5 5 5 5 5 5 5 4 3 3 4 4 4 3 3 3 2 2 1 3 5 5
Wind_Direction
240 238 262 271 263 275 282 290 296 298 303 292 287 317 305 319 351 288 302 102 215 261 265 274 275 276 274 267 260 253 240 231 225 213 207 202 203 206
264 275 275 273 284 277 282 287 291 295 301 317 315 327 334 305 295 296 290 166 220 226 248 269 273 271 268 263 256 241 235 231 225 214 204 203 206 207
253 250 259 284 285 284 280 282 285 289 291 295 307 327 309 298 309 295 272 264 235 173 201 251 268 269 269 265 253 242 235 230 225 217 205 204 207 204
246 254 259 259 266 277 283 284 286 291 281 289 295 297 295 287 286 288 279 269 285 149 171 211 244 258 268 266 256 249 244 237 228 219 209 205 208 208
242 250 255 257 261 266 272 274 274 271 273 276 279 292 283 291 285 273 281 281 275 199 180 189 196 213 243 255 252 244 235 228 227 219 211 209 210 212
239 248 254 255 260 265 262 265 270 276 271 270 274 273 273 275 278 280 282 271 277 287 286 224 184 193 209 222 235 229 222 220 220 216 217 218 216 215
238 245 252 262 280 274 280 279 273 271 273 272 271 272 276 285 286 287 288 285 271 283 291 283 223 237 208 206 206 205 202 204 207 210 212 218 220 220
241 250 249 229 237 239 251 263 272 269 277 280 277 282 283 284 291 288 285 284 285 298 297 295 298 297 298 293 110 149 181 192 200 209 218 222 221 222
240 248 260 265 255 266 248 241 246 246 251 269 278 283 285 285 289 281 282 289 296 302 284 279 279 288 296 55 124 153 175 187 198 206 211 218 219 226
240 248 257 270 277 283 274 266 264 257 249 248 267 279 286 291 279 279 281 271 264 259 265 275 286 290 293 300 145 165 175 183 193 200 207 216 223 233
240 242 251 258 273 275 264 266 271 271 254 240 263 276 299 290 284 275 271 273 278 273 253 270 281 286 280 270 160 170 180 185 193 199 206 218 232 238
230 226 212 252 270 230 257 263 264 270 284 270 239 238 241 238 233 250 269 274 282 285 300 283 282 288 281 269 248 188 195 197 201 204 207 215 228 246
249 244 214 175 223 233 255 267 274 281 267 260 251 245 235 230 229 237 259 271 282 284 297 284 284 285 281 281 274 267 263 248 221 212 206 209 215 233
260 268 276 154 217 238 247 271 276 267 257 254 254 257 260 260 255 264 266 271 282 285 289 288 279 282 281 277 277 270 269 269 267 267 254 199 209 218
269 293 277 221 231 237 230 238 244 248 258 261 261 266 277 290 283 262 254 255 257 261 261 263 269 269 271 276 280 278 281 274 267 270 266 250 245 232
246 238 214 215 229 252 250 225 236 253 262 264 272 278 281 267 259 261 259 256 257 255 243 246 257 263 266 271 274 273 272 270 263 264 268 262 251 247
264 250 249 241 237 235 244 250 247 245 247 253 258 263 265 263 265 265 265 268 273 277 272 248 244 248 254 260 263 268 276 276 269 268 264 266 262 254
245 245 244 247 253 259 259 253 246 248 254 260 259 261 265 260 261 262 260 266 272 275 277 275 265 258 251 232 237 267 275 281 279 264 263 265 266 257
233 242 244 243 250 257 261 263 263 261 257 254 256 262 265 265 263 264 265 269 272 274 275 271 264 264 270 269 209 215 278 285 280 268 259 263 269 270
237 245 245 248 252 258 262 265 269 267 262 260 259 261 268 271 272 270 268 272 275 278 276 268 264 263 270 283 290 264 225 261 271 276 280 280 276 260
242 246 249 252 258 260 264 268 269 270 276 276 271 269 271 271 271 273 274 268 270 274 277 279 292 269 271 270 261 257 233 197 251 271 279 274 277 272
256 258 259 262 263 263 263 265 266 266 265 266 273 274 270 271 271 273 277 275 269 273 279 284 284 263 256 258 261 263 265 225 190 201 261 285 292 289
263 266 263 253 250 250 256 263 265 268 272 277 282 283 280 279 281 281 279 277 278 282 282 280 272 263 263 263 264 264 262 259 252 233 237 196 214 238